Regional Weather Roundup
Issued by NWS

Home | Current Version | Previous Version | Text Only | Print | Product List | Glossary On
Versions: 1 2 3 4 5 6 7 8 9 10 11 12 13 14 15 16 17 18 19 20 21 22 23 24 25 26 27 28 29 30 31 32 33 34 35 36 37 38 39 40 41 42 43 44 45 46 47 48 49 50
000
ASUS43 KBIS 180710
RWRND

NORTH DAKOTA REGIONAL WEATHER ROUNDUP
NATIONAL WEATHER SERVICE BISMARCK ND
200 AM CDT FRI AUG 18 2017

NOTE: "FAIR" INDICATES FEW OR NO CLOUDS BELOW 12,000 FEET WITH NO
SIGNIFICANT WEATHER AND/OR OBSTRUCTIONS TO VISIBILITY.


NDZ001>003-009>011-017-180800-
NORTHWEST NORTH DAKOTA

CITY           SKY/WX    TMP DP  RH WIND       PRES   REMARKS
WILLISTON      CLEAR     56  52  86 N3        29.92S
MINOT          LGT RAIN  63  60  90 S6        29.88F
MINOT AFB      CLOUDY    62  59  89 S6        29.87S
$$

NDZ018>021-031>035-040>046-180800-
SOUTHWEST NORTH DAKOTA

CITY           SKY/WX    TMP DP  RH WIND       PRES   REMARKS
BISMARCK       CLEAR     63  58  83 CALM      29.86R
DICKINSON      CLEAR     55  49  80 NW6       29.93R
GARRISON         N/A     60  56  86 NE22G31   29.87R
HETTINGER ARPT CLEAR     58  45  62 NW5       29.95R
$$

NDZ004>008-012>016-024-026-027-054-180800-
NORTHEAST NORTH DAKOTA

CITY           SKY/WX    TMP DP  RH WIND       PRES   REMARKS
GRAND FORKS    CLOUDY    59  58  96 S3        29.82S
DEVILS LAKE    MOCLDY    64  58  80 CALM      29.86F
$$

NDZ022-023-025-028>030-036>039-047>053-180800-
SOUTHEAST NORTH DAKOTA

CITY           SKY/WX    TMP DP  RH WIND       PRES   REMARKS
FARGO          PTCLDY    62  59  90 CALM      29.85R
JAMESTOWN      LGT RAIN  63  59  87 W9        29.89R
$$




USA.gov is the U.S. government's official web portal to all federal, state and local government web resources and services.